Starlink 11550

operational
NORAD ID: 63052 Int'l Des: 2025-035 Owner: SPXS Country: US Constellation: starlink
LEOCIRCULAR

About Starlink 11550

Description loading...

Live Position

Loading 3D Globe...

Upcoming Passes

Altitude History

Altitude vs Time

uPlot chart will show altitude changes over time

Two-Line Element Set

1 63052U 25035A 25304.80907933 .00290526 00000-0 21886-2 0 9995
2 63052 42.9982 71.9853 0001162 316.2367 43.8408 15.70848796 40953
Epoch: Oct 31, 2025 • Age: 6 hours

Current Status

Altitude 359.6 km
Velocity 7.70 km/s
Sub-Earth Point 42.91°N, 84.01°E
Launch Date Feb 21, 2025
Age 0.6 years
Type internet

Technical Details

Classification Payload
Mass 960.00 kg
Dry Mass 910.00 kg
Total Mass 960.00 kg
Length 0.30 m
Diameter 4.10 m
Span 29.00 m
Shape Box + pan
Manufacturer SPXS
Bus Type Starlink V2MD
Phase Status In Orbit
Owner/State SPXS/US

Large Constellations

Loading constellations...